Location: Lecco
(45.8566°N, 9.3977°E)
Time: 18:27:27
(UTC+02:00)

Courier 1B Rocket - Pass Details

Date: 02 September 2019
Orbit: 920 x 1202 km, 28.2° (Epoch: 22 September)

Event Time Altitude Azimuth Distance (km) Brightness Sun altitude
Rises 00:49:31 0° 221° (SW) 3,590 - -35.5°
Reaches altitude 10° 00:53:29 10° 197° (SSW) 2,688 - -35.6°
Maximum altitude 00:56:40 14° 168° (SSE) 2,441 - -35.7°
Drops below altitude 10° 00:59:56 10° 138° (SE) 2,778 - -35.8°
Sets 01:04:10 0° 115° (ESE) 3,797 - -35.9°
